GW6647 Weather Reports


time (UTC)temp
F
wind
direction
speed
knots
gust
knots
rain 1hr
in
rain 24hr
in
rain mn
in
humidity
%
barometer
mb
20260509150307 52 169 0.0 0.0 0.00 0.00 0.00 69 1022.6
20260509145803 52 175 0.0 0.0 0.00 0.00 0.00 70 1022.6
20260509145306 52 174 0.9 0.9 0.00 0.00 0.00 71 1022.5
20260509144800 52 144 0.0 0.9 0.00 0.00 0.00 71 1022.4
20260509144257 52 165 0.0 0.0 0.00 0.00 0.00 71 1022.3
20260509143754 53 168 0.0 0.9 0.00 0.00 0.00 71 1022.4
20260509143252 53 169 0.0 0.0 0.00 0.00 0.00 68 1022.3
20260509142747 54 175 0.0 0.0 0.00 0.00 0.00 66 1022.6
20260509142243 55 172 0.0 0.9 0.00 0.00 0.00 64 1022.4
20260509141739 55 178 0.9 2.6 0.00 0.00 0.00 63 1022.3
20260509141237 55 203 0.9 2.6 0.00 0.00 0.00 62 1022.4
20260509140733 55 245 0.9 2.6 0.00 0.00 0.00 61 1022.3
20260509140230 56 265 0.9 1.7 0.00 0.00 0.00 61 1022.4
20260509135728 56 230 0.9 3.5 0.00 0.00 0.00 60 1022.3
20260509135226 56 264 1.7 2.6 0.00 0.00 0.00 60 1022.3
20260509134722 56 291 2.6 3.5 0.00 0.00 0.00 59 1022.2
20260509134220 57 267 1.7 5.2 0.00 0.00 0.00 59 1022.1
20260509133717 57 268 3.5 3.5 0.00 0.00 0.00 59 1022.0
20260509133213 57 278 2.6 3.5 0.00 0.00 0.00 58 1022.2
20260509132712 57 270 3.5 3.5 0.00 0.00 0.00 58 1022.0
20260509132210 57 286 1.7 1.7 0.00 0.00 0.00 58 1022.2
20260509131706 58 274 2.6 2.6 0.00 0.00 0.00 58 1022.1
20260509131203 58 275 2.6 2.6 0.00 0.00 0.00 57 1022.2
20260509130659 58 274 3.5 5.2 0.00 0.00 0.00 56 1021.9
20260509130155 58 275 3.5 3.5 0.00 0.00 0.00 57 1022.1
20260509125652 59 281 2.6 5.2 0.00 0.00 0.00 55 1022.2
20260509125149 59 266 3.5 5.2 0.00 0.00 0.00 53 1022.0
20260509124645 59 273 3.5 6.1 0.00 0.00 0.00 52 1022.0
20260509124142 59 275 3.5 5.2 0.00 0.00 0.00 53 1021.9
20260509123640 59 275 2.6 2.6 0.00 0.00 0.00 53 1022.1
20260509123137 59 289 1.7 3.5 0.00 0.00 0.00 54 1021.8
20260509122632 59 309 3.5 3.5 0.00 0.00 0.00 53 1021.9
20260509122130 60 277 3.5 6.1 0.00 0.00 0.00 51 1021.8
20260509121626 60 260 3.5 5.2 0.00 0.00 0.00 53 1021.6
20260509121124 60 277 3.5 5.2 0.00 0.00 0.00 52 1021.8
20260509120622 60 271 3.5 5.2 0.00 0.00 0.00 51 1021.7
20260509120120 61 288 2.6 2.6 0.00 0.00 0.00 49 1021.6
20260509115617 61 274 3.5 3.5 0.00 0.00 0.00 48 1021.9
20260509115115 62 288 5.2 6.1 0.00 0.00 0.00 47 1021.6
20260509114612 62 288 5.2 6.1 0.00 0.00 0.00 47 1021.6
20260509114112 62 293 5.2 7.0 0.00 0.00 0.00 46 1021.7
20260509113609 62 287 7.0 7.8 0.00 0.00 0.00 47 1021.6
20260509113107 62 277 3.5 3.5 0.00 0.00 0.00 47 1021.7
20260509112603 62 277 3.5 3.5 0.00 0.00 0.00 47 1021.7
20260509112100 62 36 4.3 5.2 0.00 0.00 0.00 46 1021.5
20260509111557 62 304 3.5 5.2 0.00 0.00 0.00 46 1021.4
20260509111054 63 298 5.2 6.1 0.00 0.00 0.00 46 1021.5
20260509110551 62 186 1.7 5.2 0.00 0.00 0.00 47 1021.5
20260509110048 62 270 1.7 3.5 0.00 0.00 0.00 48 1021.3
20260509105546 63 256 2.6 3.5 0.00 0.00 0.00 48 1021.2
20260509105043 63 275 2.6 2.6 0.00 0.00 0.00 47 1021.2
20260509104540 64 263 5.2 6.1 0.00 0.00 0.00 44 1021.0
20260509104037 64 352 6.1 7.0 0.00 0.00 0.00 44 1021.0
20260509103535 64 282 5.2 7.0 0.00 0.00 0.00 45 1020.7
20260509103033 64 303 7.0 8.7 0.00 0.00 0.00 43 1020.7
20260509102530 64 295 5.2 7.8 0.00 0.00 0.00 43 1020.7
20260509102027 64 283 6.1 8.7 0.00 0.00 0.00 44 1020.5
20260509101523 64 286 6.1 8.7 0.00 0.00 0.00 43 1020.5
20260509101020 64 348 7.8 9.6 0.00 0.00 0.00 43 1020.4
20260509100517 65 268 5.2 7.8 0.00 0.00 0.00 43 1020.3
20260509100014 65 264 5.2 8.7 0.00 0.00 0.00 42 1020.1
20260509095511 65 329 4.3 7.8 0.00 0.00 0.00 42 1020.3
20260509095008 65 327 5.2 7.0 0.00 0.00 0.00 41 1020.1
20260509094504 65 327 4.3 7.0 0.00 0.00 0.00 41 1020.1
20260509094002 65 315 3.5 7.8 0.00 0.00 0.00 41 1020.1
20260509093500 66 10 6.1 7.0 0.00 0.00 0.00 41 1020.2
20260509092957 66 331 2.6 7.0 0.00 0.00 0.00 40 1020.1
20260509092455 66 62 1.7 3.5 0.00 0.00 0.00 41 1019.9
20260509091953 66 42 1.7 3.5 0.00 0.00 0.00 40 1019.8
20260509091444 67 348 5.2 7.0 0.00 0.00 0.00 39 1019.8
20260509090942 67 349 3.5 3.5 0.00 0.00 0.00 38 1019.7
20260509090439 67 4 4.3 5.2 0.00 0.00 0.00 37 1019.6
20260509085936 67 277 5.2 7.0 0.00 0.00 0.00 36 1019.6
20260509085432 67 2 3.5 8.7 0.00 0.00 0.00 37 1019.5
20260509084928 67 297 3.5 6.1 0.00 0.00 0.00 37 1019.5
20260509084426 67 305 7.0 7.8 0.00 0.00 0.00 36 1019.4
20260509083923 68 29 3.5 7.0 0.00 0.00 0.00 36 1019.3
20260509083420 68 315 5.2 11.3 0.00 0.00 0.00 35 1019.2
20260509082917 68 5 7.0 8.7 0.00 0.00 0.00 36 1019.2
20260509082414 68 287 4.3 13.0 0.00 0.00 0.00 35 1019.3
20260509081911 68 318 9.6 12.2 0.00 0.00 0.00 35 1019.3
20260509081408 69 300 6.1 12.2 0.00 0.00 0.00 33 1019.3
20260509080906 69 224 7.8 13.0 0.00 0.00 0.00 32 1019.2
20260509080403 69 288 7.8 9.6 0.00 0.00 0.00 33 1019.1
20260509075902 69 51 5.2 11.3 0.00 0.00 0.00 34 1018.9
20260509075358 69 11 6.1 9.6 0.00 0.00 0.00 34 1019.0
20260509074856 69 278 6.1 13.0 0.00 0.00 0.00 34 1018.9
20260509074353 69 12 7.0 20.0 0.00 0.00 0.00 32 1018.7
20260509073849 69 312 6.1 13.0 0.00 0.00 0.00 32 1018.7
20260509073346 70 13 8.7 13.9 0.00 0.00 0.00 32 1019.0
20260509072842 70 292 5.2 7.8 0.00 0.00 0.00 31 1018.7
20260509072339 70 30 8.7 12.2 0.00 0.00 0.00 31 1018.6
20260509071836 70 269 7.0 13.9 0.00 0.00 0.00 30 1018.6
20260509071333 70 341 6.1 14.8 0.00 0.00 0.00 31 1018.6
20260509070830 70 330 7.8 12.2 0.00 0.00 0.00 30 1018.7
20260509070326 70 344 7.0 16.5 0.00 0.00 0.00 29 1018.6
20260509065823 70 336 13.9 18.2 0.00 0.00 0.00 28 1018.8
20260509065319 70 299 7.0 12.2 0.00 0.00 0.00 29 1018.8
20260509064815 70 326 9.6 13.9 0.00 0.00 0.00 27 1018.6
20260509064313 70 285 7.8 11.3 0.00 0.00 0.00 28 1018.8
20260509063810 70 324 9.6 12.2 0.00 0.00 0.00 27 1018.8
20260509063306 70 316 11.3 14.8 0.00 0.00 0.00 29 1018.7
20260509062804 70 320 14.8 19.1 0.00 0.00 0.00 27 1018.7
20260509062301 70 321 11.3 19.1 0.00 0.00 0.00 27 1018.7
20260509061758 70 11 5.2 13.9 0.00 0.00 0.00 30 1018.4
20260509061255 71 293 9.6 13.9 0.00 0.00 0.00 28 1018.4
20260509060752 70 293 10.4 14.8 0.00 0.00 0.00 29 1018.6
20260509060249 70 12 9.6 14.8 0.00 0.00 0.00 29 1018.3
20260509055745 71 349 9.6 13.9 0.00 0.00 0.00 30 1018.3
20260509055241 70 34 15.6 18.2 0.00 0.00 0.00 30 1018.5
20260509054737 70 354 10.4 15.6 0.00 0.00 0.00 31 1018.1
20260509054234 70 286 8.7 20.0 0.00 0.00 0.00 30 1018.1
20260509053733 70 322 7.8 19.1 0.00 0.00 0.00 30 1018.4
20260509053229 70 333 11.3 15.6 0.00 0.00 0.00 31 1018.0
20260509052727 70 342 10.4 20.9 0.00 0.00 0.00 32 1018.5
20260509052225 70 359 10.4 13.0 0.00 0.00 0.00 31 1018.6
20260509051722 70 308 11.3 15.6 0.00 0.00 0.00 31 1018.6
20260509051220 70 345 7.8 14.8 0.00 0.00 0.00 33 1018.6
20260509050717 70 337 12.2 15.6 0.00 0.00 0.00 33 1018.7
20260509050213 69 356 9.6 11.3 0.00 0.00 0.00 34 1018.6
20260509045710 69 287 11.3 15.6 0.00 0.00 0.00 34 1018.6
20260509045207 69 288 13.0 18.2 0.00 0.00 0.00 35 1018.7
20260509044705 69 292 9.6 14.8 0.00 0.00 0.00 34 1018.8
20260509044202 69 331 8.7 13.9 0.00 0.00 0.00 35 1018.8
20260509043658 69 335 11.3 16.5 0.00 0.00 0.00 34 1018.7
20260509043154 69 336 13.0 16.5 0.00 0.00 0.00 34 1018.7
20260509042651 69 4 8.7 19.1 0.00 0.00 0.00 34 1019.0
20260509042147 69 345 13.0 20.9 0.00 0.00 0.00 34 1018.9
20260509041643 69 359 13.0 20.9 0.00 0.00 0.00 34 1018.9
20260509041141 69 333 13.9 19.1 0.00 0.00 0.00 35 1019.0
20260509040639 69 341 14.8 20.0 0.00 0.00 0.00 35 1018.9
20260509040136 68 321 11.3 18.2 0.00 0.00 0.00 37 1018.7
20260509035633 68 329 9.6 23.5 0.00 0.00 0.00 36 1018.6
20260509035129 68 6 13.0 21.7 0.00 0.00 0.00 36 1018.6
20260509034627 68 357 9.6 18.2 0.00 0.00 0.00 38 1018.8
20260509034124 68 272 12.2 16.5 0.00 0.00 0.00 37 1018.8
20260509033621 68 355 7.8 16.5 0.00 0.00 0.00 38 1018.9
20260509033118 68 320 11.3 21.7 0.00 0.00 0.00 39 1018.8
20260509032615 68 294 12.2 20.0 0.00 0.00 0.00 38 1019.2
20260509032112 68 307 7.0 15.6 0.00 0.00 0.00 41 1019.0
20260509031610 67 249 9.6 21.7 0.00 0.00 0.00 37 1019.1
20260509031107 67 6 17.4 25.2 0.00 0.00 0.00 38 1019.0
20260509030605 67 331 9.6 15.6 0.00 0.00 0.00 41 1019.1
20260509025558 67 4 7.8 13.9 0.00 0.00 0.00 41 1019.0
20260509025053 67 295 9.6 19.1 0.00 0.00 0.00 41 1019.1
20260509024549 67 352 10.4 26.1 0.00 0.00 0.00 41 1019.2
20260509024046 66 309 7.8 16.5 0.00 0.00 0.00 42 1019.5
20260509023544 67 340 11.3 18.2 0.00 0.00 0.00 41 1019.1
20260509023040 66 301 7.0 13.9 0.00 0.00 0.00 42 1019.5
20260509022537 67 342 11.3 15.6 0.00 0.00 0.00 41 1019.4
20260509022035 66 121 13.0 14.8 0.00 0.00 0.00 40 1019.3
20260509021532 66 279 13.0 20.0 0.00 0.00 0.00 42 1019.5
20260509021028 66 305 7.0 15.6 0.00 0.00 0.00 42 1019.7
20260509020527 65 316 12.2 18.2 0.00 0.00 0.00 43 1019.5
20260509020023 66 284 7.0 13.0 0.00 0.00 0.00 46 1019.8
20260509015522 66 43 10.4 16.5 0.00 0.00 0.00 44 1019.5
20260509015019 65 303 7.8 13.0 0.00 0.00 0.00 44 1019.5
20260509014516 65 314 8.7 13.9 0.00 0.00 0.00 46 1019.8
20260509014012 65 306 12.2 18.2 0.00 0.00 0.00 46 1019.9
20260509013509 64 280 10.4 15.6 0.00 0.00 0.00 46 1019.8
20260509013005 65 297 10.4 14.8 0.00 0.00 0.00 47 1019.8
20260509012501 65 10 10.4 14.8 0.00 0.00 0.00 46 1019.8
20260509011958 64 340 9.6 16.5 0.00 0.00 0.00 49 1019.7
20260509011456 64 296 15.6 20.9 0.00 0.00 0.00 47 1019.9
20260509010953 64 305 10.4 16.5 0.00 0.00 0.00 47 1020.1
20260509010451 63 293 7.0 12.2 0.00 0.00 0.00 50 1019.9
20260509005947 64 294 9.6 15.6 0.00 0.00 0.00 49 1020.1
20260509005446 64 312 7.8 13.0 0.00 0.00 0.00 49 1020.0
20260509004945 63 9 7.8 11.3 0.00 0.00 0.00 50 1020.1
20260509004442 63 289 7.0 9.6 0.00 0.00 0.00 51 1020.0
20260509003940 62 345 10.4 13.9 0.00 0.00 0.00 50 1019.8
20260509003438 62 298 7.8 13.9 0.00 0.00 0.00 52 1019.7
20260509002935 62 326 11.3 13.9 0.00 0.00 0.00 52 1019.7
20260509002433 62 283 5.2 8.7 0.00 0.00 0.00 53 1019.8
20260509001929 63 267 7.8 8.7 0.00 0.00 0.00 52 1019.7
20260509001426 63 338 8.7 11.3 0.00 0.00 0.00 50 1019.6
20260509000924 63 4 5.2 12.2 0.00 0.00 0.00 50 1019.4
20260509000422 63 5 11.3 13.0 0.00 0.00 0.00 48 1019.3
20260508235917 62 275 8.7 15.6 0.00 0.00 0.00 51 1019.5
20260508235415 61 346 12.2 20.0 0.00 0.00 0.00 50 1019.4
20260508234911 61 330 13.0 16.5 0.00 0.00 0.00 51 1019.4
20260508234409 61 303 6.1 12.2 0.00 0.00 0.00 52 1019.3
20260508233906 61 312 7.0 12.2 0.00 0.00 0.00 52 1019.5
20260508233405 61 291 11.3 14.8 0.00 0.00 0.00 52 1019.3
20260508232901 61 258 18.2 20.9 0.00 0.00 0.00 52 1019.2
20260508232358 61 282 7.8 14.8 0.00 0.00 0.00 53 1019.4
20260508231856 60 310 8.7 12.2 0.00 0.00 0.00 54 1019.4
20260508231352 60 318 9.6 12.2 0.00 0.00 0.00 54 1019.2
20260508230849 60 309 5.2 13.0 0.00 0.00 0.00 55 1019.2
20260508230345 60 294 9.6 16.5 0.00 0.00 0.00 54 1019.1
20260508225843 60 288 5.2 13.9 0.00 0.00 0.00 55 1019.2
20260508225339 60 268 7.8 12.2 0.00 0.00 0.00 55 1019.1
20260508224838 60 257 9.6 14.8 0.00 0.00 0.00 55 1018.9
20260508224335 59 272 8.7 15.6 0.00 0.00 0.00 55 1019.0
20260508223832 59 277 9.6 12.2 0.00 0.00 0.00 56 1019.0
20260508223329 59 269 10.4 14.8 0.00 0.00 0.00 56 1018.9
20260508222827 59 308 9.6 14.8 0.00 0.00 0.00 56 1018.6
20260508222324 58 289 8.7 13.0 0.00 0.00 0.00 58 1018.7
20260508221820 58 317 7.0 15.6 0.00 0.00 0.00 57 1018.7
20260508221316 58 289 9.6 14.8 0.00 0.00 0.00 57 1018.8
20260508220812 58 277 12.2 15.6 0.00 0.00 0.00 57 1018.8
20260508220309 58 288 7.8 11.3 0.00 0.00 0.00 57 1018.6
20260508215806 58 264 10.4 15.6 0.00 0.00 0.00 56 1018.3
20260508215306 59 281 7.0 13.9 0.00 0.00 0.00 57 1018.4
20260508214759 59 338 13.9 18.2 0.00 0.00 0.00 55 1018.5
20260508214256 59 270 13.9 20.0 0.00 0.00 0.00 55 1018.1
20260508213753 59 278 7.8 13.9 0.00 0.00 0.00 56 1018.2
20260508213250 58 318 10.4 13.9 0.00 0.00 0.00 56 1018.3
20260508212741 58 274 11.3 16.5 0.00 0.00 0.00 58 1018.3
20260508212237 58 269 7.8 9.6 0.00 0.00 0.00 58 1018.2
20260508211733 58 322 10.4 14.8 0.00 0.00 0.00 58 1018.1
20260508211228 57 288 8.7 12.2 0.00 0.00 0.00 58 1018.1
20260508210726 57 294 6.1 12.2 0.00 0.00 0.00 58 1018.3
20260508210223 57 299 8.7 11.3 0.00 0.00 0.00 59 1018.2
20260508205720 57 275 10.4 15.6 0.00 0.00 0.00 58 1018.0
20260508205216 57 299 7.8 13.9 0.00 0.00 0.00 57 1018.2
20260508204712 57 307 7.8 9.6 0.00 0.00 0.00 58 1017.9
20260508204209 58 295 8.7 15.6 0.00 0.00 0.00 56 1017.7
20260508203705 58 288 10.4 16.5 0.00 0.00 0.00 57 1017.4
20260508203201 58 296 12.2 14.8 0.00 0.00 0.00 57 1017.5
20260508202657 58 286 9.6 14.8 0.00 0.00 0.00 57 1017.5
20260508202155 58 299 11.3 13.0 0.00 0.00 0.00 57 1017.3
20260508201652 58 298 12.2 18.2 0.00 0.00 0.00 56 1017.7
20260508201148 58 270 12.2 16.5 0.00 0.00 0.00 56 1017.5
20260508200645 58 335 7.0 12.2 0.00 0.00 0.00 55 1017.3
20260508200141 58 296 13.9 16.5 0.00 0.00 0.00 54 1017.3
20260508195638 58 302 10.4 16.5 0.00 0.00 0.00 53 1017.2
20260508195134 58 254 7.8 13.0 0.00 0.00 0.00 53 1016.8
20260508194631 58 276 10.4 19.1 0.00 0.00 0.00 52 1016.9
20260508194128 58 278 9.6 13.0 0.00 0.00 0.00 52 1016.8
20260508193625 58 269 7.8 18.2 0.00 0.00 0.00 53 1016.5
20260508193121 58 301 10.4 18.2 0.00 0.00 0.00 53 1016.5
20260508192618 59 298 11.3 20.0 0.00 0.00 0.00 52 1016.4
20260508192115 59 312 13.9 18.2 0.00 0.00 0.00 52 1016.1
20260508191612 58 272 12.2 15.6 0.00 0.00 0.00 53 1016.2
20260508191109 59 324 13.0 19.1 0.00 0.00 0.00 52 1016.1
20260508190606 59 334 15.6 21.7 0.00 0.00 0.00 51 1016.2
20260508185559 59 293 12.2 15.6 0.00 0.00 0.00 49 1015.9
20260508185057 59 262 10.4 13.0 0.00 0.00 0.00 49 1015.9
20260508184554 59 319 10.4 13.0 0.00 0.00 0.00 48 1015.9
20260508184052 59 290 7.0 11.3 0.00 0.00 0.00 49 1015.9
20260508183548 59 296 8.7 12.2 0.00 0.00 0.00 48 1015.7
20260508183043 59 273 7.0 11.3 0.00 0.00 0.00 49 1015.5
20260508182540 59 317 9.6 13.0 0.00 0.00 0.00 50 1015.2
20260508182037 59 252 5.2 11.3 0.00 0.00 0.00 51 1015.4
20260508181532 59 274 9.6 13.9 0.00 0.00 0.00 50 1015.5
20260508181030 59 277 7.0 9.6 0.00 0.00 0.00 51 1015.3
20260508180526 59 290 6.1 8.7 0.00 0.00 0.00 51 1015.4
20260508180023 58 315 8.7 13.9 0.00 0.00 0.00 51 1015.3
20260508175519 58 336 5.2 7.8 0.00 0.00 0.00 53 1015.2
20260508175017 58 291 4.3 9.6 0.00 0.00 0.00 54 1015.3
20260508174514 58 290 5.2 7.0 0.00 0.00 0.00 53 1015.3
20260508174011 58 312 5.2 7.0 0.00 0.00 0.00 54 1015.4
20260508173508 58 293 3.5 6.1 0.00 0.00 0.00 54 1015.4
20260508173004 58 335 3.5 7.8 0.00 0.00 0.00 54 1015.4
20260508172501 58 283 2.6 5.2 0.00 0.00 0.00 54 1015.6
20260508171957 58 301 4.3 6.1 0.00 0.00 0.00 54 1015.4
20260508171454 58 271 4.3 5.2 0.00 0.00 0.00 54 1015.5
20260508170950 58 269 2.6 7.0 0.00 0.00 0.00 54 1015.4
20260508170448 58 287 3.5 7.0 0.00 0.00 0.00 54 1015.3
20260508165945 58 230 0.9 5.2 0.00 0.00 0.00 54 1015.4
20260508165443 58 336 4.3 7.0 0.00 0.00 0.00 54 1015.5
20260508164938 58 325 6.1 7.8 0.00 0.00 0.00 54 1015.7
20260508164435 58 263 3.5 5.2 0.00 0.00 0.00 56 1015.4
20260508163933 58 295 4.3 7.0 0.00 0.00 0.00 55 1015.7
20260508163431 58 289 5.2 7.0 0.00 0.00 0.00 55 1015.4
20260508162926 58 305 3.5 7.0 0.00 0.00 0.00 55 1015.5
20260508162424 58 277 4.3 7.0 0.00 0.00 0.00 55 1015.5
20260508161920 58 278 5.2 7.8 0.00 0.00 0.00 55 1015.4
20260508161417 58 287 5.2 8.7 0.00 0.00 0.00 55 1015.5
20260508160915 58 295 4.3 7.8 0.00 0.00 0.00 56 1015.5
20260508160414 58 271 5.2 7.8 0.00 0.00 0.00 57 1015.9
20260508155909 58 304 6.1 7.0 0.00 0.00 0.00 58 1015.5
20260508155407 57 287 3.5 6.1 0.00 0.00 0.00 60 1015.4
20260508154903 58 287 3.5 6.1 0.00 0.00 0.00 62 1015.4
20260508154401 57 263 3.5 5.2 0.00 0.00 0.00 62 1015.5
20260508153857 57 294 3.5 3.5 0.00 0.00 0.00 63 1015.5
20260508153354 57 248 1.7 2.6 0.00 0.00 0.00 67 1015.5
20260508152850 57 188 0.0 0.9 0.00 0.00 0.00 69 1015.4
20260508152347 57 193 0.9 1.7 0.00 0.00 0.00 69 1015.5
20260508151843 58 172 0.0 0.9 0.00 0.00 0.00 67 1015.5
20260508151341 58 187 0.0 0.9 0.00 0.00 0.00 67 1015.5
20260508150837 58 284 0.9 2.6 0.00 0.00 0.00 66 1015.5